Regional Weather Roundup
Issued by NWS Kansas City/Pleasant Hill, MO

Home | Current Version | Previous Version | Text Only | Print | Product List | Glossary On
Versions: 1 2 3 4 5 6 7 8 9 10 11 12 13 14 15 16 17 18 19 20 21 22 23 24 25 26 27 28 29 30 31 32 33 34 35 36 37 38 39 40 41 42 43 44 45 46 47 48 49 50
000
ASUS43 KEAX 240511
RWREAX

WEATHER ROUNDUP FOR EASTERN KANSAS AND NORTHWEST MISSOURI
NATIONAL WEATHER SERVICE KANSAS CITY/PLEASANT HILL MO
1200 AM CDT THU JUL 24 2014

KSZ040-057-103>105-MOZ028-029-037-043-240600-
...KANSAS CITY METROPOLITAN AREA...

CITY           SKY/WX    TMP DP  RH WIND       PRES   REMARKS
K.C. INTL      CLEAR     73  62  68 E8        30.15R
K.C. DOWNTOWN  CLEAR     74  62  66 NE7       30.13S
LEES SUMMIT    CLEAR     73  63  70 E7        30.15R
OLATHE - IXD   CLEAR     73  62  68 E7        30.15S
OLATHE - OJC   CLEAR     72  62  71 E6        30.14S
LAWRENCE       CLEAR     71  64  78 NE7       30.13S

$$

MOZ001>008-011>017-020>025-030>033-038>040-044>046-053-054-240600-
...NORTHERN AND CENTRAL MISSOURI...

CITY           SKY/WX    TMP DP  RH WIND       PRES   REMARKS
ST. JOSEPH     CLEAR     72  62  71 E6        30.15R
MOSBY          CLEAR     70  63  78 CALM      30.14R
WARRENSBURG    CLEAR     68  61  77 N5        30.13S
WHITEMAN AFB   CLEAR     69  54  59 NE7       30.13R
CLINTON        CLEAR     72  64  78 CALM      30.12S
SEDALIA        CLEAR     71  63  75 NE6       30.14R
WARSAW         NOT AVBL
MARSHALL       CLEAR     70  64  83 E5        30.15R
CHILLICOTHE      N/A     70  59  68 NE3       30.16S
MOBERLY        CLEAR     64  59  82 NE3       30.16R
KIRKSVILLE     CLEAR     63  57  81 NE3       30.16F

$$

MOZ041-047>049-056>058-063>065-088>090-097-240600-
...EASTERN AND SOUTHERN MISSOURI...

CITY           SKY/WX    TMP DP  RH WIND       PRES   REMARKS
ST. LOUIS INTL CLEAR     71  58  63 NE8       30.12S
SPIRIT OF STL  CLEAR     67  60  78 E5        30.11R
COLUMBIA       CLEAR     67  60  78 NE7       30.14R
JEFFERSON CITY CLEAR     72  60  66 E5        30.12R
MEXICO         CLEAR     66  63  88 NE3       30.14S
HANNIBAL       CLEAR     64  55  72 CALM      30.15S
ROLLA          PTCLDY    69  62  78 NE9       30.11S
OSAGE BEACH    CLEAR     72  63  73 NE6       30.11S
SPRINGFIELD    CLEAR     74  67  78 NE8       30.09S
BRANSON        FOG       72  72 100 CALM      30.09S VSB 1/4
NEVADA         CLEAR     70  66  88 N5        30.12S
JOPLIN         CLEAR     71  67  87 N6        30.09S
WEST PLAINS    CLEAR     68  66  93 CALM      30.09S

$$

IAZ060-094-KSZ022-034>040-054-083-096-NEZ052-066-093-240600-
...KANSAS...SOUTHEAST NEBRASKA AND IOWA...

CITY           SKY/WX    TMP DP  RH WIND       PRES   REMARKS
TOPEKA         CLEAR     72  66  81 CALM      30.14S
MANHATTAN      CLEAR     70  63  78 CALM      30.14S
EMPORIA        CLEAR     72  65  78 NE3       30.13S
CHANUTE        CLEAR     74  66  76 E6        30.11S
WICHITA        CLEAR     76  65  68 SE7       30.13S
OMAHA          CLEAR     74  62  66 SE6       30.17S
LINCOLN        CLEAR     72  60  66 CALM      30.17F
FALLS CITY     CLEAR     68  64  87 E3        30.15R
LAMONI         CLEAR     67  59  75 CALM      30.17S
DES MOINES     CLEAR     71  58  63 S3        30.16S

$$




USA.gov is the U.S. government's official web portal to all federal, state and local government web resources and services.